Wetbulb
44.71 44.88 44.98 45.00 45.00 45.12 45.42 45.45 45.27 45.67 46.13 46.59 46.49 46.66 46.74 46.66 46.51 46.64 46.89 47.00 46.92 47.17 47.65 48.16 48.67 49.28 49.91 50.61 51.00 51.38 51.62 51.83 51.77 51.39 51.12 51.45 51.96 52.16 51.95 51.67 51.43 51.20 51.20 51.43 52.63 53.90 55.18 56.32 56.79 57.07 57.08 56.95 57.13 57.25 57.51 57.63 57.72 57.53 57.26 56.79 56.54 56.18 55.71 54.92 53.99 53.01 52.13 51.42 52.07
44.27 44.51 44.48 43.63 43.61 44.15 44.68 44.59 44.78 45.00 45.50 46.19 46.24 46.32 46.37 46.41 46.33 46.51 46.64 46.79 47.12 47.32 47.50 47.88 48.18 48.81 49.35 49.84 50.36 50.98 51.43 51.73 51.67 51.46 51.17 51.29 52.11 52.33 52.17 51.71 51.47 51.15 50.88 50.70 51.33 52.10 53.14 54.26 55.09 55.64 55.91 56.09 56.23 56.32 56.45 56.71 56.89 56.80 56.44 56.07 55.90 55.64 55.24 54.53 53.85 52.95 52.00 50.93 50.70
44.37 44.53 44.59 44.15 43.96 43.86 43.78 43.78 44.10 44.39 44.83 45.18 45.65 45.89 46.04 46.12 46.19 46.29 46.49 46.86 47.21 47.44 47.47 47.65 47.78 48.23 48.79 49.52 50.20 50.75 51.28 51.59 51.85 51.67 51.33 51.16 51.41 51.67 51.74 51.73 51.53 50.90 50.33 49.89 49.97 50.46 51.08 52.06 52.80 53.31 53.72 54.66 54.93 54.97 55.02 55.28 55.46 55.51 55.33 54.92 54.74 54.48 53.90 53.27 52.94 52.36 51.35 50.10 49.67
44.51 44.29 43.92 43.57 43.41 43.27 43.25 43.33 43.54 43.86 44.25 44.61 44.97 45.22 45.52 45.73 45.97 46.10 46.35 46.57 46.87 47.02 47.18 47.31 47.68 48.19 48.76 49.21 49.71 50.26 50.64 50.67 51.14 51.32 51.13 50.80 50.83 50.94 51.14 51.49 51.26 50.90 50.51 49.98 49.45 49.40 49.71 50.37 51.00 51.50 52.05 52.76 53.12 53.30 53.39 53.56 53.94 54.08 53.90 53.67 53.13 52.68 52.19 51.56 51.39 50.88 50.23 49.16 48.83
43.98 43.76 43.51 43.22 43.28 43.25 43.30 43.42 43.50 43.64 43.88 44.31 44.38 44.56 44.70 45.06 45.34 45.59 45.71 45.76 46.05 46.28 46.83 47.14 47.59 47.91 48.17 48.55 48.86 49.11 49.48 49.78 49.40 50.09 50.84 50.52 50.24 50.14 50.21 50.46 50.60 50.56 50.38 50.08 49.41 49.14 48.91 49.13 49.62 50.07 50.52 50.97 51.41 51.68 51.95 52.22 52.59 52.50 52.41 51.87 51.16 50.71 50.44 50.08 49.76 49.59 49.09 48.36 48.13
43.04 43.09 43.16 43.22 43.34 43.27 43.21 43.20 43.42 43.49 43.74 43.92 43.78 43.63 43.65 44.10 44.24 44.36 44.53 44.74 45.21 45.76 46.03 45.97 46.32 46.42 46.87 47.52 47.77 48.03 48.40 49.04 49.48 49.91 50.32 50.24 50.00 49.84 49.63 49.51 49.65 49.75 49.79 49.61 49.22 48.73 48.33 48.15 48.19 48.37 48.73 49.00 49.35 49.85 50.33 50.69 51.01 50.97 50.61 49.90 49.18 48.91 48.73 48.64 48.33 48.24 47.92 47.57 47.12
42.44 42.36 42.35 42.41 42.56 42.62 42.68 43.05 43.28 43.40 43.43 43.31 43.06 42.86 42.90 43.20 43.50 43.79 44.02 44.38 44.90 45.12 45.21 45.05 45.56 45.96 46.28 46.72 47.02 47.42 47.88 48.52 49.16 49.70 49.83 49.69 49.41 49.01 48.73 48.70 48.89 49.20 49.29 49.25 48.72 48.28 47.79 47.25 46.98 46.40 45.86 45.41 46.40 47.29 48.14 49.08 49.58 49.53 49.00 48.19 47.65 47.29 47.03 47.20 47.29 47.16 46.85 46.48 45.99
42.14 41.89 41.69 41.55 41.82 42.15 42.49 42.84 43.08 42.92 42.85 42.60 42.55 42.62 42.66 42.94 43.21 43.50 43.77 44.01 44.24 44.51 44.73 44.96 45.64 45.96 46.15 46.21 46.46 46.87 47.36 47.99 48.63 49.01 49.23 49.08 48.69 48.52 48.42 48.53 48.40 48.76 49.07 49.12 48.55 47.79 47.02 46.53 45.99 45.50 44.87 44.25 44.43 45.10 46.00 47.07 47.79 48.01 47.74 46.85 46.04 45.86 46.04 46.49 46.40 46.17 45.77 45.49 44.91
42.12 42.06 41.99 42.03 42.09 42.25 42.46 42.57 42.72 42.54 42.49 42.34 42.38 42.58 42.82 42.72 42.96 43.13 43.20 43.29 43.48 43.88 44.37 44.78 45.09 45.40 45.55 45.63 45.77 46.12 46.56 47.24 47.76 48.24 48.62 48.70 48.23 47.89 47.49 47.00 46.73 47.19 47.95 48.59 48.19 47.52 46.58 45.86 45.27 44.87 44.34 43.53 43.35 43.71 44.34 45.14 45.95 46.40 46.31 45.59 44.78 44.69 45.05 45.59 45.45 45.27 44.91 44.60 43.83
41.67 41.73 41.86 41.91 42.03 42.15 42.27 42.38 42.45 42.44 42.35 42.20 42.34 42.43 42.23 41.66 41.99 42.46 42.59 42.69 42.93 43.40 43.90 44.24 44.49 44.67 44.76 44.82 44.88 45.23 45.70 46.26 47.08 47.79 48.20 48.27 47.85 47.50 46.95 46.24 45.85 46.22 47.16 48.20 47.93 47.29 46.44 45.40 44.82 44.34 43.98 43.53 43.26 43.26 43.53 43.89 44.51 44.87 44.78 44.07 43.62 43.70 43.97 44.20 44.38 44.33 44.20 43.83 43.06
41.28 41.41 41.59 41.64 41.92 41.99 42.02 42.15 42.09 41.97 41.96 41.90 42.06 42.13 42.06 41.55 41.86 41.98 42.12 42.24 42.15 42.37 42.70 43.10 43.39 43.43 43.48 43.64 43.80 44.15 44.53 45.17 45.80 46.46 47.15 47.53 47.53 47.27 46.81 45.94 45.41 45.60 46.27 46.94 47.16 46.75 45.89 45.17 44.47 44.21 43.81 43.40 43.31 43.31 43.35 43.44 43.88 44.11 43.70 42.72 42.63 42.72 42.85 42.76 43.30 43.52 43.43 42.99 42.30
41.07 41.26 41.45 41.68 41.92 42.02 41.98 41.87 41.74 41.69 41.63 41.58 41.66 41.85 41.98 42.02 42.02 41.79 41.58 41.55 41.35 41.39 41.71 42.22 42.27 42.37 42.54 42.74 42.94 43.15 43.39 43.93 44.28 44.83 45.57 46.24 46.75 46.80 46.47 45.80 45.40 45.29 45.47 45.79 46.53 46.21 45.62 45.04 44.42 43.99 43.82 43.59 43.45 43.36 43.40 43.35 43.70 43.48 42.85 41.64 41.91 41.91 41.91 41.68 42.31 42.67 42.81 42.45 41.77
40.93 41.17 41.35 41.63 41.82 41.88 41.77 41.60 41.55 41.50 41.37 41.31 41.47 41.63 41.77 41.81 41.82 41.57 41.25 40.91 40.63 40.72 40.94 41.37 41.47 41.57 41.62 41.89 42.12 42.34 42.53 42.71 42.88 43.35 43.87 44.61 45.48 45.90 45.99 45.63 45.19 45.12 45.30 45.61 46.22 46.17 45.71 45.17 44.47 44.09 43.79 43.69 43.59 43.50 43.41 43.41 43.49 43.25 42.40 41.37 41.46 41.46 41.28 41.10 41.64 41.91 42.00 41.73 41.28
40.84 40.96 41.13 41.39 41.38 41.44 41.35 41.15 41.09 41.19 41.05 41.05 41.25 41.40 41.63 41.66 41.64 41.33 41.00 40.67 40.33 40.30 40.38 40.55 40.59 40.80 40.92 41.12 41.24 41.39 41.51 41.70 41.73 41.80 42.11 42.82 44.00 44.86 45.40 45.23 44.85 44.70 44.92 45.61 46.04 46.13 45.81 45.27 44.75 44.27 43.92 43.79 43.52 43.47 43.47 43.38 43.41 43.14 42.46 41.61 41.38 41.11 40.93 40.84 41.20 41.37 41.19 40.87 40.74
40.54 40.67 40.84 41.05 41.00 41.04 40.88 40.75 40.75 40.77 40.78 40.67 40.97 41.12 41.38 41.49 41.41 41.19 40.81 40.56 40.25 40.17 39.98 39.82 39.86 39.98 40.18 40.45 40.53 40.53 40.65 40.69 40.65 40.65 40.80 41.27 42.47 43.71 44.65 45.10 44.77 44.53 44.58 45.18 45.56 45.73 45.68 45.32 44.84 44.40 44.15 43.76 43.71 43.62 43.39 43.34 43.37 43.05 42.61 42.04 41.72 41.31 40.95 40.98 41.07 40.93 40.66 40.38 40.29
40.18 40.31 40.50 40.51 40.49 40.51 40.45 40.49 40.46 40.49 40.46 40.46 40.70 40.81 41.08 41.29 41.33 41.10 40.65 40.29 40.05 39.81 39.57 39.34 39.26 39.42 39.65 39.68 39.84 39.91 39.87 39.87 39.83 39.72 39.85 40.18 41.05 42.17 43.41 44.69 44.78 44.53 44.45 44.58 44.95 45.25 45.38 45.29 44.98 44.54 44.15 43.80 43.80 43.58 43.35 43.25 43.20 43.02 42.67 42.19 41.92 41.56 41.16 40.97 40.91 40.60 40.41 40.18 39.86
39.78 39.90 40.00 40.13 40.05 40.06 40.14 40.19 40.30 40.28 40.24 40.23 40.49 40.59 40.76 40.89 41.06 40.69 40.21 39.84 39.75 39.40 39.14 38.93 39.03 39.11 39.11 39.09 39.34 39.41 39.45 39.32 39.20 39.06 39.20 39.42 39.90 40.73 41.98 43.51 44.45 44.62 44.32 44.23 44.44 44.69 44.81 44.99 44.85 44.54 44.15 43.85 43.54 43.49 43.18 43.21 43.11 42.75 42.49 42.19 41.97 41.53 41.18 40.73 40.67 40.36 40.08 39.85 39.53
39.33 39.51 39.75 39.78 39.71 39.79 39.83 39.94 40.02 40.06 40.09 40.07 40.12 40.24 40.32 40.45 40.45 40.25 39.97 39.76 39.55 39.17 38.95 38.94 39.17 39.17 39.15 39.10 39.23 39.24 39.24 39.02 38.90 38.80 38.94 39.09 39.46 39.90 40.69 42.06 43.52 44.32 44.53 44.18 44.31 44.31 44.48 44.69 44.46 44.24 43.97 43.53 43.40 43.23 43.09 42.94 42.81 42.49 42.18 42.01 41.66 41.36 40.96 40.65 40.43 40.20 39.87 39.38 39.20
39.05 39.23 39.42 39.48 39.58 39.62 39.65 39.63 39.71 39.81 39.86 39.78 39.78 39.70 39.74 39.81 39.85 39.85 39.72 39.63 39.42 39.11 39.00 38.92 39.05 39.06 39.06 39.12 39.25 39.19 39.00 38.96 38.88 38.85 38.91 39.06 39.21 39.46 39.94 40.89 42.48 43.72 44.44 44.31 44.27 44.35 44.39 44.39 44.21 43.89 43.39 43.03 42.91 42.73 42.59 42.54 42.31 42.14 41.74 41.51 41.12 40.77 40.47 40.29 40.08 39.81 39.58 39.31 38.96
38.96 39.00 39.24 39.43 39.49 39.50 39.52 39.44 39.50 39.39 39.42 39.25 39.15 39.02 38.93 39.01 39.29 39.29 39.29 39.29 39.41 39.35 39.12 38.91 38.78 38.71 38.83 38.95 39.13 39.26 39.12 39.25 39.14 39.02 39.00 38.97 39.00 39.06 39.48 40.20 41.57 42.92 43.75 44.17 44.26 44.31 44.31 44.26 43.94 43.49 43.04 42.51 42.24 42.01 41.87 41.86 41.72 41.45 41.15 40.70 40.27 39.97 39.84 39.67 39.54 39.37 39.11 39.03 38.90
38.81 39.00 39.19 39.47 39.42 39.35 39.26 39.23 39.16 39.02 38.83 38.60 38.45 38.47 38.43 38.69 38.79 38.91 39.10 39.28 39.54 39.47 39.22 39.07 38.83 38.74 38.71 38.75 38.72 38.83 38.97 39.09 39.19 39.12 38.97 38.83 38.66 38.74 39.05 39.67 40.87 42.21 43.46 44.09 44.26 44.30 44.17 44.04 43.68 43.18 42.59 41.98 41.66 41.34 41.24 41.04 40.78 40.60 40.15 39.62 39.41 39.20 39.08 38.78 38.78 38.70 38.58 38.64 38.52
38.86 39.12 39.27 39.32 39.28 39.11 38.93 38.81 38.58 38.37 38.15 37.97 38.04 38.11 38.14 38.28 38.49 38.81 39.09 39.43 39.50 39.46 39.28 39.13 38.81 38.74 38.58 38.43 38.35 38.32 38.52 38.67 39.04 39.11 38.98 38.87 38.61 38.55 38.83 39.56 40.80 42.07 43.19 43.82 43.99 44.08 43.91 43.81 43.45 42.74 42.11 41.48 41.04 40.76 40.44 40.11 39.92 39.47 39.02 38.49 38.37 38.21 38.14 37.96 37.87 37.89 37.88 37.90 37.96
38.91 39.17 39.24 39.18 39.00 38.58 38.18 38.11 37.90 37.76 37.50 37.52 37.70 37.68 37.81 37.96 38.19 38.57 38.87 39.15 39.21 39.12 39.15 39.17 38.94 38.90 38.81 38.66 38.37 38.26 38.34 38.56 38.85 39.11 39.27 39.21 39.05 38.95 39.22 39.95 40.89 41.92 42.92 43.68 43.93 43.93 43.76 43.45 42.91 42.38 41.58 40.94 40.55 40.15 39.83 39.54 38.99 38.49 38.03 37.41 37.28 37.26 37.14 37.14 37.16 37.27 37.27 37.29 37.26
38.91 38.92 38.89 38.77 38.41 38.09 37.72 37.49 37.32 37.02 36.83 36.68 36.84 37.02 37.29 37.48 37.84 38.04 38.29 38.53 38.82 38.86 38.97 39.03 39.10 39.04 38.92 38.69 38.51 38.28 38.12 37.95 38.40 38.71 38.97 39.31 39.28 39.27 39.40 39.99 41.02 42.10 43.19 43.91 43.86 43.68 43.37 42.84 42.40 41.78 41.04 40.41 40.11 39.70 39.29 38.85 38.33 37.74 37.19 36.61 36.33 36.19 36.24 36.25 36.46 36.50 36.57 36.64 36.75
38.73 38.53 38.29 38.12 37.75 37.42 37.16 36.98 36.71 36.41 36.35 36.36 36.44 36.59 36.73 36.96 37.33 37.59 37.70 37.94 38.23 38.48 38.56 38.60 38.64 38.65 38.49 38.13 38.21 38.03 37.98 37.69 37.80 38.08 38.46 38.81 38.99 39.09 39.37 39.90 41.14 42.40 43.29 43.49 42.74 42.25 41.81 41.27 41.54 41.27 40.56 40.00 39.62 39.25 38.76 38.49 38.01 37.43 36.82 36.22 35.83 35.57 35.51 35.56 35.80 36.02 36.18 36.33 36.50
38.28 37.99 37.75 37.44 37.14 36.80 36.50 36.26 36.17 36.09 36.01 36.19 36.16 36.25 36.31 36.55 37.01 37.30 37.47 37.53 37.87 38.12 38.21 38.03 37.99 37.80 37.66 37.58 37.49 37.49 37.48 37.42 37.52 37.64 37.77 38.02 38.43 38.81 39.37 39.98 41.27 42.54 43.36 43.02 41.81 41.00 40.74 40.89 40.45 39.73 39.45 39.91 39.28 38.65 38.25 37.89 37.77 37.32 36.93 36.43 35.80 35.37 35.20 35.14 35.42 35.71 36.07 36.37 36.45
37.82 37.46 37.04 36.78 36.53 36.13 35.89 35.78 35.73 35.72 35.67 35.78 35.71 35.72 35.84 36.16 36.59 36.84 37.01 37.26 37.43 37.61 37.61 37.51 37.38 37.03 36.68 37.04 36.98 36.97 37.08 37.17 37.35 37.56 37.73 37.94 38.18 38.71 39.41 40.37 41.50 42.57 43.05 42.30 41.00 40.24 39.94 40.23 39.84 39.22 39.00 39.47 38.84 38.25 37.73 37.44 37.35 37.26 36.93 36.35 35.94 35.52 35.35 35.15 35.17 35.44 35.83 36.07 36.29
37.21 36.86 36.48 36.14 35.68 35.48 35.32 35.44 35.18 35.16 35.16 35.32 35.34 35.45 35.63 35.76 36.06 36.19 36.45 36.75 36.84 36.84 36.66 36.58 36.63 36.45 36.39 36.43 36.64 36.76 37.02 37.29 37.67 37.88 38.23 38.50 38.73 39.09 39.70 40.52 41.53 42.13 42.25 41.45 40.33 39.79 39.72 39.96 39.49 39.05 38.52 38.16 38.46 38.19 37.50 37.10 36.95 36.63 36.46 36.24 36.01 35.82 35.62 35.51 35.53 35.53 35.51 35.44 35.61
36.76 36.33 35.93 35.39 35.04 34.98 34.95 34.79 34.63 34.63 34.78 34.99 35.10 35.24 35.37 35.43 35.44 35.54 35.75 36.01 35.92 35.72 35.54 35.52 35.70 35.82 35.77 35.67 36.03 36.42 36.77 37.20 37.70 38.08 38.34 38.50 38.81 39.38 40.03 40.86 41.47 41.60 41.33 40.56 39.97 39.75 39.63 39.61 39.08 38.64 38.33 38.16 38.16 37.91 37.50 37.04 36.63 36.34 36.19 36.10 35.93 35.92 35.86 35.71 35.44 35.05 34.86 34.67 34.62
36.17 35.83 35.32 34.86 34.62 34.46 34.37 34.25 34.21 34.42 34.56 34.67 34.74 34.78 34.79 34.76 34.78 34.80 34.86 34.89 34.80 34.86 34.85 35.06 35.10 35.10 35.07 35.25 35.63 36.08 36.46 36.98 37.54 37.93 38.11 38.16 38.78 39.35 40.14 40.67 41.66 41.92 41.34 40.12 39.84 39.75 39.54 39.28 38.66 38.13 37.69 37.60 37.53 37.47 37.31 36.90 36.53 36.29 36.01 35.84 35.89 35.74 35.42 34.94 34.52 34.18 33.94 33.74 33.52
35.24 34.91 34.63 34.28 34.19 33.94 33.84 33.84 33.98 34.13 34.19 34.15 34.17 34.06 33.97 33.94 33.96 33.96 34.03 34.07 34.12 34.28 34.47 34.68 34.56 34.64 34.72 35.13 35.44 35.75 36.12 36.60 37.12 37.59 37.94 38.12 38.05 38.67 39.74 40.98 41.83 41.96 41.24 39.76 39.66 39.49 39.32 38.83 38.25 37.71 37.32 36.88 36.78 36.94 36.96 36.52 36.33 35.92 35.64 35.46 35.43 35.03 34.51 34.07 33.72 33.48 33.23 33.14 32.86
34.27 34.07 33.73 33.43 33.40 33.40 33.43 33.51 33.57 33.62 33.65 33.57 33.49 33.43 33.25 33.15 33.38 33.53 33.73 33.75 33.85 33.81 33.83 33.95 34.02 34.20 34.42 34.79 35.10 35.41 35.87 36.36 36.87 37.43 37.92 38.15 38.21 38.58 39.47 40.79 41.77 41.45 40.42 39.25 39.26 39.04 38.77 38.33 37.79 37.26 36.73 36.34 36.18 36.37 36.55 36.13 35.87 35.59 35.24 35.01 34.72 34.37 33.96 33.61 33.52 33.34 33.17 32.94 32.62
33.41 33.18 33.00 32.55 32.61 32.64 32.76 33.02 33.10 33.11 33.26 33.20 33.10 32.95 32.77 32.84 33.03 33.30 33.45 33.50 33.45 33.40 33.42 33.44 33.54 33.81 34.02 34.38 34.71 35.12 35.59 36.09 36.73 37.26 37.74 38.01 37.98 38.51 39.41 40.68 41.31 40.36 39.01 38.31 38.62 38.37 38.01 37.65 37.12 36.58 36.10 35.56 35.60 35.78 35.83 35.42 35.06 34.79 34.58 34.32 34.21 34.05 33.93 33.69 33.52 33.34 33.10 32.90 32.62
32.67 32.48 32.20 31.92 31.79 31.88 32.01 32.37 32.63 32.82 32.82 32.84 32.82 32.76 32.64 32.53 32.55 32.63 32.78 33.01 33.26 33.42 33.46 33.67 33.81 34.10 34.32 34.77 34.99 35.28 35.75 36.30 37.14 37.82 38.19 38.25 38.34 38.90 39.65 40.49 40.22 38.96 37.80 37.85 37.82 37.47 37.03 36.58 36.12 35.62 35.16 34.66 34.74 34.74 34.57 34.28 33.98 33.72 33.51 33.49 33.52 33.60 33.69 33.68 33.50 33.17 33.02 32.74 32.42
32.01 31.67 31.38 31.12 31.26 31.44 31.51 31.84 32.08 32.18 32.20 31.97 32.11 32.18 32.30 32.17 32.17 32.35 32.53 32.87 33.16 33.35 33.57 33.89 34.25 34.51 34.98 35.35 35.56 35.80 36.21 36.72 37.62 38.13 38.37 38.42 38.77 39.20 39.49 39.21 38.23 37.43 36.95 37.14 36.85 36.48 35.98 35.52 35.10 34.73 34.37 33.83 33.92 33.92 33.68 33.30 33.03 32.83 32.79 32.79 32.83 32.99 33.12 33.08 32.99 32.88 32.76 32.56 32.35
31.49 31.11 30.85 30.62 30.74 30.87 30.99 31.13 31.30 31.41 31.39 30.98 30.90 31.21 31.47 31.86 32.10 32.45 32.70 32.98 32.99 33.13 33.28 33.65 34.18 34.60 34.90 35.21 35.64 36.10 36.66 37.35 38.07 38.49 38.59 38.69 39.29 39.23 38.68 37.33 36.56 36.26 36.33 36.39 35.94 35.44 35.02 34.64 34.39 34.14 34.02 33.77 33.66 33.48 33.23 32.94 32.67 32.47 32.44 32.38 32.44 32.43 32.59 32.55 32.62 32.67 32.60 32.60 32.30
31.05 30.78 30.38 30.25 30.21 30.22 30.28 30.33 30.33 30.35 30.25 30.09 30.21 30.50 30.94 31.34 31.69 32.08 32.43 32.64 32.56 32.63 32.89 33.37 33.80 34.26 34.58 35.01 35.57 36.36 37.20 38.10 38.31 38.40 38.45 38.71 39.05 38.25 37.07 35.53 35.21 35.17 35.28 35.44 35.16 34.66 34.46 34.32 34.10 34.02 33.91 33.64 33.48 33.22 32.96 32.75 32.49 32.37 32.29 32.26 32.09 32.15 32.30 32.35 32.58 32.60 32.56 32.32 32.17
30.44 30.23 29.96 29.66 29.56 29.56 29.61 29.54 29.45 29.39 29.49 29.55 29.88 30.16 30.49 30.90 31.15 31.58 31.98 32.26 32.24 32.46 32.76 33.22 33.62 34.10 34.66 35.27 35.92 36.81 37.71 38.51 38.37 38.18 38.21 38.52 38.16 37.04 35.52 34.11 33.96 33.96 34.23 34.73 34.55 34.46 34.28 34.28 34.22 34.16 33.90 33.46 33.23 33.05 32.87 32.69 32.51 32.31 32.17 32.08 31.99 32.15 32.36 32.62 32.92 32.84 32.51 32.16 32.09
29.95 29.78 29.54 29.15 29.03 28.98 28.89 28.80 28.74 28.89 29.07 29.21 29.36 29.64 29.96 30.37 30.69 31.15 31.67 32.03 32.24 32.58 32.88 33.28 33.76 34.32 35.01 35.57 36.21 37.02 37.92 38.65 38.42 38.10 38.07 38.24 37.14 35.65 34.35 33.37 33.20 33.24 33.67 34.21 34.23 34.28 34.29 34.47 34.54 34.35 34.06 33.46 33.39 33.32 33.13 32.86 32.48 32.21 32.08 31.95 31.95 32.09 32.42 32.63 32.67 32.38 32.17 32.08 32.93
29.47 29.35 29.01 28.81 28.57 28.47 28.39 28.25 28.39 28.64 28.88 29.00 29.07 29.25 29.63 30.03 30.44 31.05 31.61 32.02 32.56 32.98 33.52 33.76 34.21 34.90 35.46 35.87 36.33 36.99 37.50 38.15 38.24 38.13 37.80 37.04 35.84 34.75 33.84 33.01 32.78 32.88 33.13 33.89 34.14 34.28 34.47 34.66 34.60 34.50 34.29 33.78 33.80 33.64 33.37 32.94 32.36 31.99 31.70 31.65 31.61 31.66 31.80 32.10 32.11 31.91 31.72 31.83 32.77
29.00 28.79 28.58 28.34 28.23 28.07 27.99 27.91 28.10 28.51 28.80 28.99 29.09 29.45 29.79 30.36 30.73 31.17 31.73 32.22 32.87 33.55 34.09 34.64 35.03 35.47 35.80 35.80 36.16 36.34 36.71 36.95 37.49 37.44 36.89 35.27 34.55 33.96 33.58 32.97 32.57 32.66 32.95 33.71 34.12 34.46 34.57 34.69 34.73 34.65 34.36 33.84 34.02 33.97 33.66 33.02 32.11 31.48 31.26 31.31 31.34 31.33 31.28 31.27 31.41 31.42 31.40 31.46 31.66
MSLP
1014.16 1014.08 1013.96 1013.92 1013.80 1013.72 1013.60 1013.44 1013.28 1013.16 1012.96 1012.80 1012.64 1012.48 1012.32 1012.16 1012.00 1011.84 1011.68 1011.52 1011.32 1011.08 1010.92 1010.80 1010.64 1010.52 1010.44 1010.32 1010.24 1010.16 1010.12 1010.08 1010.08 1010.08 1010.08 1010.08 1010.04 1010.00 1010.00 1009.96 1009.92 1009.88 1009.80 1009.72 1009.64 1009.52 1009.36 1009.16 1008.96 1008.72 1008.44 1008.20 1007.96 1007.84 1007.80 1007.80 1007.80 1007.60 1007.20 1006.96 1007.12 1007.56 1008.00 1008.24 1008.24 1008.20 1008.20 1008.24 1008.36
1014.00 1013.92 1013.92 1013.84 1013.76 1013.64 1013.48 1013.36 1013.20 1013.08 1012.92 1012.80 1012.68 1012.52 1012.36 1012.20 1012.08 1011.84 1011.64 1011.56 1011.36 1011.16 1010.96 1010.80 1010.60 1010.48 1010.36 1010.24 1010.20 1010.08 1010.08 1010.00 1009.96 1009.96 1009.96 1009.92 1009.92 1009.92 1009.92 1009.92 1009.88 1009.88 1009.80 1009.76 1009.64 1009.52 1009.40 1009.20 1009.04 1008.76 1008.48 1008.20 1007.96 1007.80 1007.72 1007.76 1007.88 1007.80 1007.52 1007.12 1006.92 1007.08 1007.56 1007.92 1008.04 1008.04 1008.08 1008.08 1008.16
1013.88 1013.80 1013.76 1013.68 1013.60 1013.48 1013.40 1013.28 1013.16 1013.04 1012.88 1012.80 1012.68 1012.52 1012.36 1012.24 1012.08 1011.88 1011.64 1011.48 1011.36 1011.20 1011.00 1010.80 1010.64 1010.48 1010.36 1010.20 1010.08 1010.04 1009.92 1009.84 1009.80 1009.76 1009.76 1009.76 1009.76 1009.76 1009.76 1009.76 1009.76 1009.76 1009.72 1009.72 1009.64 1009.48 1009.36 1009.24 1009.08 1008.84 1008.56 1008.24 1008.04 1007.80 1007.68 1007.64 1007.76 1007.76 1007.56 1007.28 1007.04 1007.00 1007.20 1007.56 1007.76 1007.88 1007.96 1008.00 1008.04
1013.76 1013.68 1013.64 1013.56 1013.48 1013.36 1013.32 1013.20 1013.08 1012.96 1012.84 1012.76 1012.64 1012.52 1012.36 1012.28 1012.08 1011.88 1011.68 1011.48 1011.32 1011.16 1011.00 1010.84 1010.68 1010.52 1010.36 1010.20 1010.04 1009.92 1009.76 1009.68 1009.64 1009.60 1009.56 1009.52 1009.48 1009.52 1009.52 1009.52 1009.56 1009.56 1009.52 1009.52 1009.48 1009.36 1009.24 1009.12 1009.00 1008.80 1008.60 1008.36 1008.16 1007.92 1007.68 1007.60 1007.64 1007.60 1007.48 1007.36 1007.20 1007.04 1007.08 1007.36 1007.64 1007.76 1007.88 1007.96 1007.92
1013.64 1013.52 1013.48 1013.40 1013.36 1013.24 1013.16 1013.08 1013.00 1012.88 1012.80 1012.68 1012.60 1012.48 1012.32 1012.20 1012.08 1011.88 1011.68 1011.48 1011.32 1011.12 1010.92 1010.80 1010.68 1010.52 1010.36 1010.20 1010.04 1009.80 1009.64 1009.52 1009.44 1009.36 1009.36 1009.32 1009.28 1009.28 1009.28 1009.24 1009.28 1009.32 1009.28 1009.28 1009.24 1009.20 1009.08 1008.96 1008.80 1008.64 1008.48 1008.36 1008.20 1007.92 1007.76 1007.64 1007.60 1007.44 1007.32 1007.32 1007.24 1007.08 1007.00 1007.20 1007.44 1007.68 1007.88 1008.00 1007.92
1013.44 1013.36 1013.32 1013.28 1013.20 1013.08 1013.04 1012.92 1012.84 1012.76 1012.64 1012.60 1012.52 1012.40 1012.24 1012.16 1012.00 1011.84 1011.68 1011.52 1011.36 1011.12 1010.92 1010.84 1010.68 1010.52 1010.36 1010.16 1009.96 1009.76 1009.56 1009.40 1009.28 1009.16 1009.08 1009.08 1009.08 1009.08 1009.04 1009.04 1009.00 1009.00 1009.04 1009.08 1009.00 1008.96 1008.92 1008.84 1008.68 1008.48 1008.36 1008.32 1008.16 1007.96 1007.76 1007.72 1007.56 1007.40 1007.28 1007.24 1007.20 1007.12 1007.04 1007.12 1007.32 1007.64 1007.92 1008.00 1008.04
1013.32 1013.24 1013.20 1013.08 1013.00 1012.92 1012.88 1012.76 1012.68 1012.60 1012.52 1012.48 1012.40 1012.28 1012.16 1012.08 1011.96 1011.80 1011.64 1011.56 1011.36 1011.20 1011.00 1010.88 1010.72 1010.48 1010.32 1010.12 1009.92 1009.76 1009.56 1009.36 1009.20 1009.08 1008.92 1008.84 1008.80 1008.80 1008.80 1008.76 1008.72 1008.72 1008.72 1008.76 1008.80 1008.80 1008.76 1008.64 1008.52 1008.36 1008.20 1008.24 1008.16 1008.00 1007.84 1007.80 1007.64 1007.44 1007.32 1007.32 1007.24 1007.24 1007.20 1007.08 1007.20 1007.48 1007.72 1007.84 1008.00
1013.20 1013.12 1013.08 1012.96 1012.92 1012.80 1012.72 1012.64 1012.52 1012.48 1012.40 1012.32 1012.24 1012.16 1012.08 1011.96 1011.88 1011.76 1011.64 1011.52 1011.36 1011.20 1011.04 1010.92 1010.72 1010.52 1010.36 1010.20 1010.00 1009.76 1009.60 1009.36 1009.16 1008.96 1008.80 1008.68 1008.64 1008.60 1008.56 1008.52 1008.52 1008.48 1008.48 1008.48 1008.56 1008.60 1008.60 1008.48 1008.36 1008.20 1008.12 1008.16 1008.12 1008.04 1007.92 1007.88 1007.76 1007.56 1007.44 1007.40 1007.36 1007.36 1007.28 1007.20 1007.24 1007.36 1007.48 1007.64 1007.88
1013.12 1013.08 1012.96 1012.88 1012.80 1012.68 1012.60 1012.48 1012.40 1012.36 1012.24 1012.16 1012.08 1012.04 1011.92 1011.88 1011.76 1011.68 1011.60 1011.48 1011.36 1011.20 1011.08 1010.92 1010.76 1010.56 1010.40 1010.24 1010.08 1009.88 1009.64 1009.36 1009.08 1008.84 1008.64 1008.56 1008.48 1008.36 1008.32 1008.32 1008.28 1008.24 1008.20 1008.20 1008.32 1008.36 1008.40 1008.36 1008.20 1008.08 1008.00 1008.08 1008.12 1008.08 1008.04 1008.00 1007.92 1007.76 1007.60 1007.48 1007.48 1007.44 1007.36 1007.24 1007.28 1007.28 1007.32 1007.48 1007.72
1013.08 1013.00 1012.92 1012.80 1012.64 1012.52 1012.44 1012.36 1012.24 1012.20 1012.12 1012.04 1011.92 1011.84 1011.80 1011.76 1011.64 1011.60 1011.52 1011.48 1011.36 1011.24 1011.16 1011.00 1010.80 1010.64 1010.48 1010.32 1010.08 1009.88 1009.64 1009.36 1009.12 1008.80 1008.52 1008.36 1008.20 1008.08 1008.08 1008.04 1008.08 1008.04 1008.00 1008.00 1008.08 1008.20 1008.24 1008.20 1008.08 1007.92 1007.84 1007.88 1008.00 1008.08 1008.08 1008.08 1008.08 1007.92 1007.76 1007.68 1007.64 1007.56 1007.52 1007.44 1007.40 1007.36 1007.36 1007.44 1007.60
1013.04 1012.92 1012.80 1012.68 1012.52 1012.40 1012.28 1012.20 1012.08 1012.00 1011.92 1011.80 1011.76 1011.64 1011.64 1011.60 1011.52 1011.48 1011.44 1011.40 1011.32 1011.20 1011.12 1011.00 1010.88 1010.68 1010.48 1010.32 1010.08 1009.88 1009.64 1009.36 1009.08 1008.80 1008.48 1008.20 1008.08 1007.92 1007.84 1007.80 1007.84 1007.80 1007.76 1007.76 1007.80 1007.96 1008.08 1008.08 1007.92 1007.76 1007.68 1007.68 1007.84 1007.92 1008.04 1008.08 1008.08 1008.00 1007.88 1007.80 1007.76 1007.68 1007.64 1007.60 1007.52 1007.48 1007.48 1007.48 1007.60
1012.96 1012.80 1012.64 1012.48 1012.36 1012.24 1012.12 1012.04 1011.92 1011.80 1011.76 1011.64 1011.60 1011.48 1011.44 1011.40 1011.40 1011.36 1011.36 1011.32 1011.24 1011.12 1011.04 1010.92 1010.88 1010.72 1010.52 1010.36 1010.12 1009.92 1009.64 1009.40 1009.16 1008.88 1008.60 1008.32 1008.08 1007.92 1007.76 1007.64 1007.56 1007.52 1007.48 1007.48 1007.48 1007.64 1007.80 1007.88 1007.76 1007.64 1007.52 1007.48 1007.60 1007.76 1007.92 1008.00 1008.04 1007.96 1007.92 1007.84 1007.76 1007.76 1007.72 1007.68 1007.64 1007.56 1007.52 1007.60 1007.68
1012.84 1012.64 1012.48 1012.36 1012.20 1012.08 1011.96 1011.84 1011.76 1011.68 1011.60 1011.48 1011.44 1011.36 1011.32 1011.24 1011.20 1011.20 1011.20 1011.16 1011.08 1011.04 1010.96 1010.88 1010.84 1010.72 1010.56 1010.36 1010.20 1009.96 1009.76 1009.52 1009.28 1009.00 1008.72 1008.44 1008.20 1007.92 1007.72 1007.52 1007.40 1007.36 1007.28 1007.20 1007.24 1007.36 1007.48 1007.52 1007.48 1007.44 1007.36 1007.28 1007.36 1007.52 1007.68 1007.84 1007.92 1007.88 1007.80 1007.76 1007.76 1007.72 1007.76 1007.76 1007.68 1007.64 1007.64 1007.72 1007.76
1012.64 1012.48 1012.32 1012.20 1012.08 1011.92 1011.80 1011.72 1011.64 1011.56 1011.48 1011.36 1011.32 1011.24 1011.20 1011.08 1011.08 1011.08 1011.08 1011.00 1010.96 1010.92 1010.92 1010.84 1010.80 1010.68 1010.56 1010.40 1010.24 1010.08 1009.88 1009.64 1009.40 1009.12 1008.84 1008.56 1008.24 1007.96 1007.72 1007.48 1007.36 1007.20 1007.12 1007.04 1007.00 1007.04 1007.12 1007.20 1007.24 1007.20 1007.08 1007.08 1007.16 1007.28 1007.48 1007.64 1007.68 1007.64 1007.64 1007.64 1007.64 1007.64 1007.68 1007.72 1007.68 1007.64 1007.64 1007.76 1007.84
1012.48 1012.32 1012.16 1012.04 1011.92 1011.76 1011.68 1011.60 1011.48 1011.44 1011.36 1011.28 1011.20 1011.12 1011.08 1010.96 1010.92 1010.92 1010.92 1010.88 1010.84 1010.80 1010.80 1010.76 1010.64 1010.56 1010.44 1010.36 1010.20 1010.08 1009.92 1009.72 1009.48 1009.20 1008.92 1008.56 1008.24 1007.92 1007.68 1007.48 1007.32 1007.16 1006.96 1006.80 1006.72 1006.72 1006.80 1006.88 1006.92 1006.92 1006.88 1006.84 1006.88 1007.04 1007.20 1007.36 1007.40 1007.40 1007.40 1007.44 1007.44 1007.48 1007.52 1007.60 1007.64 1007.60 1007.60 1007.64 1007.80
1012.32 1012.16 1012.00 1011.88 1011.76 1011.64 1011.60 1011.48 1011.44 1011.36 1011.28 1011.20 1011.12 1011.08 1010.96 1010.92 1010.80 1010.80 1010.80 1010.76 1010.68 1010.68 1010.68 1010.64 1010.52 1010.40 1010.28 1010.20 1010.08 1009.96 1009.80 1009.60 1009.40 1009.16 1008.88 1008.52 1008.20 1007.88 1007.64 1007.36 1007.28 1007.08 1006.84 1006.56 1006.44 1006.36 1006.36 1006.48 1006.60 1006.64 1006.64 1006.60 1006.60 1006.72 1006.92 1007.08 1007.16 1007.20 1007.20 1007.20 1007.20 1007.20 1007.28 1007.36 1007.44 1007.48 1007.48 1007.48 1007.60
1012.12 1011.96 1011.84 1011.76 1011.64 1011.56 1011.48 1011.40 1011.36 1011.28 1011.20 1011.12 1011.08 1011.04 1010.92 1010.84 1010.76 1010.68 1010.64 1010.60 1010.52 1010.48 1010.48 1010.40 1010.36 1010.24 1010.12 1009.96 1009.88 1009.76 1009.64 1009.36 1009.20 1008.96 1008.76 1008.44 1008.08 1007.80 1007.52 1007.28 1007.08 1006.92 1006.72 1006.40 1006.16 1006.00 1005.96 1006.04 1006.20 1006.36 1006.36 1006.36 1006.36 1006.44 1006.64 1006.80 1006.92 1006.92 1007.00 1007.00 1007.04 1007.00 1007.04 1007.12 1007.20 1007.28 1007.36 1007.40 1007.44
1011.96 1011.84 1011.72 1011.64 1011.52 1011.48 1011.36 1011.32 1011.28 1011.24 1011.20 1011.16 1011.08 1011.04 1010.92 1010.84 1010.76 1010.64 1010.52 1010.44 1010.40 1010.36 1010.28 1010.20 1010.08 1010.04 1009.92 1009.76 1009.60 1009.48 1009.36 1009.12 1008.92 1008.72 1008.48 1008.24 1008.00 1007.72 1007.44 1007.12 1006.88 1006.68 1006.52 1006.28 1005.96 1005.72 1005.64 1005.64 1005.88 1006.08 1006.12 1006.08 1006.08 1006.20 1006.36 1006.48 1006.64 1006.72 1006.80 1006.84 1006.84 1006.84 1006.88 1006.92 1006.96 1007.08 1007.16 1007.24 1007.32
1011.80 1011.68 1011.60 1011.48 1011.44 1011.36 1011.32 1011.32 1011.32 1011.28 1011.24 1011.20 1011.12 1011.04 1010.96 1010.88 1010.76 1010.64 1010.48 1010.36 1010.28 1010.20 1010.08 1009.92 1009.80 1009.72 1009.56 1009.44 1009.32 1009.16 1009.00 1008.80 1008.64 1008.44 1008.20 1008.00 1007.80 1007.56 1007.28 1006.96 1006.72 1006.48 1006.28 1006.08 1005.76 1005.48 1005.28 1005.32 1005.52 1005.76 1005.84 1005.84 1005.92 1005.96 1006.08 1006.20 1006.36 1006.52 1006.64 1006.68 1006.76 1006.76 1006.76 1006.80 1006.84 1006.88 1006.92 1007.04 1007.16
1011.64 1011.56 1011.48 1011.40 1011.36 1011.32 1011.28 1011.28 1011.36 1011.32 1011.28 1011.20 1011.16 1011.08 1010.96 1010.84 1010.76 1010.60 1010.44 1010.24 1010.12 1010.00 1009.88 1009.72 1009.56 1009.36 1009.20 1009.04 1008.92 1008.80 1008.64 1008.48 1008.28 1008.08 1007.84 1007.68 1007.52 1007.32 1007.08 1006.80 1006.52 1006.24 1006.00 1005.76 1005.48 1005.20 1005.04 1005.00 1005.20 1005.40 1005.48 1005.60 1005.68 1005.76 1005.92 1006.08 1006.20 1006.36 1006.48 1006.60 1006.64 1006.68 1006.68 1006.68 1006.76 1006.80 1006.88 1006.96 1007.08
1011.56 1011.48 1011.40 1011.36 1011.36 1011.32 1011.32 1011.36 1011.36 1011.32 1011.28 1011.20 1011.12 1011.08 1010.92 1010.80 1010.64 1010.48 1010.28 1010.08 1009.92 1009.76 1009.64 1009.44 1009.24 1009.08 1008.88 1008.68 1008.56 1008.40 1008.24 1008.12 1007.92 1007.68 1007.48 1007.36 1007.16 1006.96 1006.76 1006.56 1006.32 1006.00 1005.68 1005.44 1005.20 1004.96 1004.76 1004.68 1004.88 1005.08 1005.20 1005.36 1005.48 1005.60 1005.76 1005.92 1006.04 1006.20 1006.36 1006.52 1006.60 1006.64 1006.64 1006.68 1006.72 1006.80 1006.84 1006.96 1007.08
1011.48 1011.40 1011.36 1011.36 1011.36 1011.32 1011.36 1011.36 1011.36 1011.32 1011.24 1011.16 1011.08 1010.96 1010.80 1010.64 1010.48 1010.28 1010.08 1009.88 1009.68 1009.48 1009.28 1009.08 1008.88 1008.72 1008.52 1008.36 1008.20 1008.04 1007.88 1007.68 1007.52 1007.36 1007.16 1006.96 1006.72 1006.52 1006.36 1006.20 1005.92 1005.64 1005.36 1005.08 1004.88 1004.64 1004.48 1004.36 1004.48 1004.68 1004.88 1005.08 1005.20 1005.36 1005.48 1005.68 1005.84 1006.04 1006.24 1006.44 1006.56 1006.64 1006.68 1006.76 1006.80 1006.80 1006.88 1006.92 1007.08
1011.44 1011.40 1011.40 1011.36 1011.36 1011.36 1011.36 1011.36 1011.28 1011.24 1011.20 1011.08 1010.92 1010.80 1010.64 1010.48 1010.24 1010.04 1009.84 1009.60 1009.40 1009.20 1008.92 1008.72 1008.56 1008.36 1008.20 1008.04 1007.92 1007.76 1007.56 1007.32 1007.12 1006.92 1006.72 1006.52 1006.32 1006.08 1005.92 1005.72 1005.48 1005.20 1004.92 1004.68 1004.48 1004.32 1004.16 1004.08 1004.12 1004.28 1004.48 1004.72 1004.92 1005.12 1005.32 1005.48 1005.68 1005.92 1006.16 1006.36 1006.56 1006.72 1006.80 1006.88 1006.88 1006.92 1006.92 1007.04 1007.12
1011.40 1011.40 1011.40 1011.40 1011.36 1011.36 1011.32 1011.24 1011.20 1011.16 1011.08 1010.92 1010.80 1010.60 1010.40 1010.20 1009.96 1009.76 1009.48 1009.24 1009.04 1008.80 1008.60 1008.40 1008.20 1008.00 1007.80 1007.64 1007.52 1007.36 1007.20 1006.96 1006.68 1006.40 1006.16 1005.96 1005.80 1005.60 1005.36 1005.20 1004.92 1004.68 1004.40 1004.20 1004.00 1003.88 1003.76 1003.76 1003.76 1003.92 1004.16 1004.44 1004.64 1004.88 1005.08 1005.32 1005.52 1005.76 1006.04 1006.32 1006.60 1006.80 1006.92 1006.96 1006.92 1006.96 1007.04 1007.08 1007.24
1011.40 1011.36 1011.36 1011.36 1011.36 1011.28 1011.24 1011.16 1011.08 1011.00 1010.84 1010.68 1010.48 1010.36 1010.12 1009.88 1009.68 1009.44 1009.16 1008.92 1008.64 1008.48 1008.24 1008.08 1007.84 1007.64 1007.48 1007.28 1007.08 1006.92 1006.76 1006.52 1006.24 1005.96 1005.68 1005.44 1005.24 1005.08 1004.88 1004.64 1004.40 1004.12 1003.84 1003.64 1003.48 1003.40 1003.36 1003.36 1003.36 1003.56 1003.88 1004.16 1004.40 1004.64 1004.88 1005.12 1005.40 1005.64 1005.92 1006.24 1006.52 1006.76 1006.88 1006.92 1006.96 1007.00 1007.08 1007.16 1007.32
1011.36 1011.28 1011.20 1011.20 1011.20 1011.12 1011.08 1011.04 1010.88 1010.76 1010.60 1010.40 1010.20 1010.00 1009.80 1009.60 1009.36 1009.12 1008.84 1008.56 1008.28 1008.08 1007.88 1007.68 1007.48 1007.28 1007.08 1006.88 1006.64 1006.44 1006.24 1006.00 1005.76 1005.48 1005.24 1004.96 1004.68 1004.48 1004.28 1004.08 1003.76 1003.48 1003.24 1003.04 1003.00 1002.96 1002.96 1002.96 1003.00 1003.20 1003.56 1003.88 1004.16 1004.48 1004.76 1005.00 1005.24 1005.56 1005.88 1006.16 1006.36 1006.48 1006.64 1006.84 1006.96 1007.04 1007.12 1007.20 1007.36
1011.16 1011.12 1011.08 1011.04 1011.04 1010.96 1010.84 1010.76 1010.64 1010.48 1010.28 1010.12 1009.92 1009.68 1009.44 1009.24 1009.04 1008.80 1008.48 1008.20 1007.92 1007.72 1007.52 1007.36 1007.16 1006.92 1006.68 1006.44 1006.20 1005.92 1005.72 1005.44 1005.20 1004.92 1004.68 1004.44 1004.16 1003.88 1003.64 1003.44 1003.16 1002.92 1002.64 1002.52 1002.52 1002.56 1002.60 1002.64 1002.72 1002.92 1003.24 1003.56 1003.84 1004.16 1004.48 1004.84 1005.16 1005.48 1005.76 1005.96 1006.16 1006.32 1006.52 1006.72 1006.84 1006.92 1007.08 1007.24 1007.40
1010.96 1010.96 1010.92 1010.88 1010.80 1010.68 1010.56 1010.48 1010.36 1010.20 1010.00 1009.80 1009.64 1009.36 1009.16 1008.92 1008.72 1008.48 1008.20 1007.88 1007.64 1007.40 1007.20 1006.92 1006.76 1006.56 1006.36 1006.04 1005.72 1005.40 1005.16 1004.92 1004.64 1004.36 1004.08 1003.80 1003.48 1003.20 1002.96 1002.76 1002.52 1002.32 1002.12 1002.08 1002.16 1002.20 1002.24 1002.28 1002.44 1002.64 1002.92 1003.20 1003.52 1003.88 1004.24 1004.64 1004.96 1005.28 1005.56 1005.76 1006.04 1006.28 1006.48 1006.64 1006.76 1006.84 1007.00 1007.20 1007.44
1010.80 1010.80 1010.76 1010.72 1010.60 1010.48 1010.36 1010.28 1010.12 1009.92 1009.76 1009.56 1009.32 1009.08 1008.88 1008.64 1008.40 1008.12 1007.84 1007.64 1007.36 1007.12 1006.88 1006.64 1006.36 1006.16 1005.92 1005.60 1005.24 1004.92 1004.64 1004.36 1004.12 1003.84 1003.56 1003.24 1002.96 1002.64 1002.36 1002.08 1001.92 1001.76 1001.68 1001.72 1001.76 1001.80 1001.92 1002.00 1002.16 1002.40 1002.68 1002.96 1003.32 1003.68 1004.08 1004.44 1004.80 1005.08 1005.36 1005.64 1005.92 1006.20 1006.44 1006.60 1006.72 1006.80 1006.92 1007.16 1007.40
1010.72 1010.68 1010.64 1010.52 1010.44 1010.28 1010.16 1010.04 1009.92 1009.76 1009.52 1009.32 1009.08 1008.84 1008.64 1008.36 1008.08 1007.84 1007.60 1007.32 1007.08 1006.80 1006.60 1006.32 1006.08 1005.76 1005.44 1005.08 1004.80 1004.52 1004.20 1003.80 1003.56 1003.32 1003.04 1002.72 1002.40 1002.08 1001.76 1001.56 1001.40 1001.28 1001.20 1001.28 1001.36 1001.48 1001.56 1001.68 1001.92 1002.20 1002.48 1002.80 1003.12 1003.48 1003.88 1004.20 1004.60 1004.92 1005.24 1005.52 1005.76 1006.04 1006.28 1006.52 1006.64 1006.76 1006.92 1007.12 1007.36
1010.64 1010.60 1010.48 1010.36 1010.24 1010.08 1009.96 1009.80 1009.68 1009.48 1009.32 1009.12 1008.92 1008.64 1008.36 1008.08 1007.80 1007.52 1007.28 1007.04 1006.76 1006.48 1006.20 1005.96 1005.68 1005.36 1004.96 1004.68 1004.40 1004.08 1003.64 1003.32 1003.00 1002.76 1002.48 1002.16 1001.88 1001.56 1001.32 1001.12 1000.92 1000.80 1000.76 1000.92 1001.04 1001.12 1001.24 1001.48 1001.72 1002.04 1002.36 1002.64 1003.04 1003.40 1003.76 1004.08 1004.48 1004.80 1005.08 1005.36 1005.64 1005.96 1006.20 1006.44 1006.60 1006.76 1006.88 1007.08 1007.32
1010.52 1010.48 1010.40 1010.24 1010.12 1009.96 1009.76 1009.64 1009.48 1009.32 1009.12 1008.92 1008.64 1008.36 1008.12 1007.84 1007.52 1007.24 1006.96 1006.68 1006.40 1006.12 1005.80 1005.52 1005.20 1004.88 1004.48 1004.20 1003.92 1003.56 1003.20 1002.84 1002.48 1002.16 1001.88 1001.60 1001.36 1001.08 1000.84 1000.64 1000.36 1000.24 1000.28 1000.48 1000.60 1000.76 1001.00 1001.28 1001.56 1001.88 1002.24 1002.64 1003.04 1003.36 1003.72 1004.08 1004.44 1004.76 1005.08 1005.36 1005.64 1005.92 1006.16 1006.40 1006.60 1006.76 1006.88 1007.04 1007.20
1010.52 1010.40 1010.28 1010.16 1009.96 1009.76 1009.64 1009.48 1009.32 1009.12 1008.92 1008.64 1008.40 1008.12 1007.80 1007.48 1007.20 1006.88 1006.60 1006.36 1006.08 1005.76 1005.40 1005.08 1004.76 1004.40 1004.08 1003.72 1003.36 1003.04 1002.64 1002.32 1001.96 1001.64 1001.36 1001.08 1000.84 1000.64 1000.36 1000.08 999.80 999.76 999.84 1000.04 1000.20 1000.48 1000.80 1001.12 1001.48 1001.84 1002.28 1002.68 1003.04 1003.36 1003.76 1004.12 1004.48 1004.84 1005.16 1005.44 1005.72 1005.96 1006.20 1006.40 1006.60 1006.76 1006.88 1007.04 1007.20
1010.48 1010.36 1010.16 1010.00 1009.84 1009.64 1009.48 1009.32 1009.12 1008.92 1008.64 1008.36 1008.08 1007.84 1007.56 1007.24 1006.92 1006.56 1006.20 1005.92 1005.68 1005.36 1005.00 1004.64 1004.36 1004.00 1003.64 1003.28 1002.92 1002.56 1002.16 1001.76 1001.44 1001.08 1000.76 1000.48 1000.32 1000.04 999.76 999.48 999.36 999.36 999.52 999.76 1000.04 1000.36 1000.68 1001.04 1001.44 1001.92 1002.40 1002.80 1003.12 1003.48 1003.84 1004.20 1004.56 1004.92 1005.24 1005.52 1005.84 1006.08 1006.28 1006.48 1006.64 1006.80 1006.92 1007.08 1007.32
1010.36 1010.20 1010.04 1009.88 1009.72 1009.52 1009.32 1009.12 1008.92 1008.68 1008.44 1008.12 1007.80 1007.48 1007.20 1006.92 1006.64 1006.28 1005.92 1005.60 1005.28 1004.92 1004.56 1004.20 1003.88 1003.56 1003.20 1002.84 1002.52 1002.16 1001.72 1001.28 1000.88 1000.52 1000.24 999.96 999.76 999.48 999.32 999.20 999.20 999.32 999.48 999.76 1000.04 1000.36 1000.68 1001.12 1001.60 1002.08 1002.48 1002.84 1003.16 1003.48 1003.88 1004.24 1004.64 1005.00 1005.28 1005.60 1005.92 1006.20 1006.40 1006.60 1006.76 1006.88 1007.04 1007.20 1007.44
1010.28 1010.16 1010.00 1009.80 1009.60 1009.36 1009.16 1008.92 1008.68 1008.44 1008.16 1007.84 1007.56 1007.20 1006.92 1006.64 1006.28 1005.92 1005.60 1005.28 1004.88 1004.48 1004.12 1003.76 1003.44 1003.12 1002.80 1002.40 1002.04 1001.68 1001.28 1000.80 1000.36 1000.00 999.68 999.48 999.24 999.12 999.12 999.20 999.28 999.40 999.60 999.84 1000.12 1000.44 1000.80 1001.24 1001.68 1002.12 1002.48 1002.80 1003.16 1003.52 1003.92 1004.28 1004.64 1005.00 1005.32 1005.64 1005.92 1006.24 1006.48 1006.68 1006.84 1007.00 1007.16 1007.36 1007.60
1010.20 1010.08 1009.92 1009.72 1009.44 1009.20 1008.96 1008.76 1008.48 1008.20 1007.92 1007.60 1007.28 1006.92 1006.60 1006.28 1005.88 1005.52 1005.24 1004.92 1004.56 1004.12 1003.68 1003.36 1003.08 1002.72 1002.36 1002.00 1001.64 1001.20 1000.76 1000.36 999.96 999.60 999.28 999.08 998.92 998.92 999.04 999.20 999.36 999.56 999.76 999.96 1000.24 1000.56 1000.92 1001.32 1001.72 1002.08 1002.36 1002.76 1003.20 1003.64 1004.00 1004.36 1004.72 1005.04 1005.36 1005.64 1006.00 1006.32 1006.60 1006.80 1006.92 1007.08 1007.28 1007.48 1007.76
1010.08 1009.96 1009.80 1009.64 1009.36 1009.08 1008.80 1008.52 1008.28 1007.96 1007.64 1007.32 1006.96 1006.64 1006.28 1005.92 1005.52 1005.16 1004.84 1004.60 1004.24 1003.80 1003.36 1003.00 1002.68 1002.36 1001.96 1001.64 1001.24 1000.80 1000.32 999.92 999.60 999.24 998.92 998.72 998.64 998.76 998.92 999.20 999.48 999.72 999.92 1000.08 1000.36 1000.64 1001.00 1001.36 1001.72 1002.00 1002.32 1002.72 1003.16 1003.60 1003.96 1004.36 1004.72 1005.04 1005.36 1005.72 1006.08 1006.40 1006.64 1006.88 1007.08 1007.24 1007.40 1007.64 1007.92
1010.08 1009.92 1009.72 1009.48 1009.20 1008.92 1008.64 1008.36 1008.08 1007.76 1007.44 1007.04 1006.64 1006.28 1005.92 1005.64 1005.24 1004.84 1004.48 1004.20 1003.92 1003.52 1003.08 1002.72 1002.32 1001.92 1001.60 1001.32 1000.92 1000.44 999.92 999.48 999.16 998.84 998.60 998.48 998.48 998.64 998.84 999.20 999.60 999.92 1000.08 1000.24 1000.44 1000.72 1001.08 1001.40 1001.68 1001.96 1002.28 1002.64 1003.08 1003.48 1003.92 1004.32 1004.68 1005.08 1005.36 1005.72 1006.12 1006.44 1006.72 1006.92 1007.12 1007.32 1007.52 1007.80 1008.04
1010.04 1009.84 1009.64 1009.40 1009.08 1008.80 1008.48 1008.08 1007.76 1007.48 1007.16 1006.80 1006.40 1006.00 1005.64 1005.28 1004.92 1004.52 1004.16 1003.88 1003.52 1003.20 1002.80 1002.36 1001.92 1001.56 1001.24 1000.96 1000.60 1000.16 999.64 999.20 998.84 998.52 998.36 998.36 998.48 998.64 998.88 999.24 999.72 1000.08 1000.28 1000.40 1000.56 1000.80 1001.12 1001.40 1001.68 1001.96 1002.28 1002.64 1003.04 1003.44 1003.80 1004.20 1004.60 1004.96 1005.36 1005.72 1006.08 1006.36 1006.68 1006.92 1007.08 1007.28 1007.60 1007.88 1008.12
1009.96 1009.76 1009.48 1009.20 1008.92 1008.60 1008.28 1007.92 1007.52 1007.20 1006.88 1006.56 1006.20 1005.76 1005.32 1004.96 1004.56 1004.20 1003.84 1003.48 1003.20 1002.88 1002.52 1002.08 1001.64 1001.24 1000.96 1000.68 1000.36 999.96 999.52 999.08 998.76 998.52 998.44 998.52 998.64 998.80 999.08 999.40 999.88 1000.24 1000.48 1000.64 1000.80 1000.96 1001.20 1001.44 1001.72 1001.96 1002.28 1002.64 1003.04 1003.40 1003.76 1004.08 1004.44 1004.84 1005.24 1005.60 1005.92 1006.20 1006.48 1006.76 1007.00 1007.28 1007.56 1007.92 1008.20
Wind_Speed
6 6 5 5 5 5 5 5 5 5 5 6 6 6 6 7 7 7 7 7 6 6 6 6 6 6 7 8 8 7 6 5 5 5 6 7 7 8 9 9 11 12 13 14 15 15 14 13 12 10 9 9 12 15 16 16 15 12 9 9 10 12 15 15 13 11 9 7 6
7 6 6 5 5 5 5 5 5 6 6 6 7 7 7 7 7 7 7 7 7 7 7 7 7 7 8 10 9 8 7 6 6 6 6 6 7 7 7 8 9 10 12 13 14 13 12 12 11 9 8 7 9 11 13 14 14 14 13 11 10 11 13 14 12 11 10 9 7
7 6 5 5 6 6 6 6 6 7 8 7 7 7 7 7 7 7 7 8 8 8 8 8 7 8 10 11 10 9 8 7 7 6 6 6 6 6 6 6 8 9 11 11 12 12 12 12 11 9 7 7 7 8 9 10 11 12 13 14 10 9 9 8 8 8 8 6 7
7 6 6 6 7 8 7 6 7 8 8 7 7 7 7 7 7 7 8 8 9 9 8 8 8 8 9 10 11 10 10 9 8 8 7 7 6 7 7 7 8 9 10 11 12 12 13 12 9 8 7 8 9 9 8 7 8 8 9 9 5 5 5 5 5 6 6 5 6
7 6 6 6 8 8 8 7 8 8 7 6 7 7 7 7 7 7 8 8 8 9 10 11 9 9 9 11 13 13 13 11 9 8 7 7 7 6 6 6 7 8 9 10 11 11 11 11 8 6 6 7 7 7 7 7 7 7 5 3 1 2 4 5 4 5 5 3 3
7 7 7 7 8 8 8 7 8 8 7 6 7 8 8 8 8 9 9 10 10 12 13 13 11 11 11 13 14 14 14 12 10 8 7 6 6 6 6 7 8 8 8 9 11 11 11 9 6 5 5 5 6 7 8 8 8 7 5 2 1 2 3 5 5 5 4 4 4
9 10 10 10 10 9 9 8 8 8 8 7 8 10 10 9 10 11 12 11 11 12 12 11 11 11 12 13 13 14 13 12 11 10 8 7 7 7 7 7 7 8 9 10 10 10 9 8 5 4 3 2 3 5 7 7 7 7 5 3 1 2 4 6 5 6 7 8 8
11 12 12 12 11 11 11 10 9 9 8 7 8 10 11 11 11 12 12 12 11 11 11 10 11 13 13 14 14 14 14 15 13 12 10 8 7 7 7 7 7 8 9 8 8 8 8 7 5 4 3 1 2 3 5 6 6 6 6 4 2 2 3 4 5 7 9 12 12
12 13 13 13 12 12 11 11 11 10 10 9 10 10 11 11 11 11 11 10 10 10 10 10 12 13 14 15 15 15 15 15 15 14 12 10 9 9 9 8 8 8 7 6 7 8 8 6 5 4 3 2 2 2 3 4 5 5 5 3 2 3 3 3 6 8 10 13 13
13 14 14 14 13 13 12 12 11 11 11 11 12 12 11 11 10 10 9 9 8 9 10 11 12 13 14 14 15 15 15 15 15 15 15 13 13 12 11 8 7 7 6 6 6 7 8 7 6 5 4 3 3 3 3 3 4 4 3 1 2 4 5 4 6 8 10 12 13
15 15 15 14 14 14 13 13 12 11 11 11 12 12 11 11 10 10 9 9 9 11 12 12 13 14 14 14 14 14 15 15 15 16 16 16 15 14 12 9 8 8 8 7 6 6 7 7 7 7 7 5 5 5 4 4 4 4 3 2 4 5 6 5 6 7 9 11 13
15 15 15 15 15 14 14 13 12 11 12 12 12 12 11 11 11 10 10 11 11 12 13 13 14 14 14 13 14 15 15 16 18 18 19 19 18 16 13 11 10 10 10 9 7 6 7 8 8 9 9 8 6 5 5 6 6 5 4 4 6 6 7 6 7 7 7 9 12
15 15 15 15 15 14 14 13 11 11 11 12 12 11 11 10 11 11 11 12 12 12 12 12 13 14 14 14 14 15 15 16 18 19 19 20 19 18 16 13 10 10 10 9 8 7 8 9 10 11 11 10 8 7 7 8 8 7 7 7 8 8 8 8 8 7 8 10 11
16 16 16 15 15 14 13 12 11 10 11 12 12 11 11 11 11 11 11 11 12 12 12 12 12 12 12 14 14 15 16 17 18 20 21 22 21 20 18 15 12 10 9 8 8 8 9 10 11 11 11 11 10 9 9 10 10 9 9 10 11 10 10 9 9 9 10 11 11
16 16 16 15 15 14 12 12 10 10 10 12 12 11 11 11 11 10 10 11 11 11 11 11 11 12 13 14 15 16 17 17 18 20 21 22 23 22 20 18 15 13 10 9 9 9 10 11 12 12 12 12 11 11 11 11 11 11 11 12 13 12 12 11 10 10 11 12 12
16 16 16 15 15 14 13 12 10 9 10 11 12 12 12 11 11 10 10 10 10 10 10 12 12 12 13 14 15 16 16 17 18 19 20 21 22 22 22 21 19 16 13 11 10 10 10 11 11 11 12 12 12 12 12 12 12 12 12 13 13 13 13 13 12 11 11 12 12
16 16 16 15 15 14 13 12 10 10 11 12 13 13 13 12 11 11 11 11 10 10 11 13 13 13 13 14 14 14 15 15 16 17 18 20 21 22 22 22 20 17 15 12 11 11 11 11 10 11 11 11 11 11 12 12 12 12 12 13 13 13 14 13 12 12 12 12 12
17 16 16 15 15 15 14 14 13 12 13 14 14 14 14 14 14 13 13 13 12 12 12 13 13 14 14 15 14 14 13 14 16 17 18 19 21 22 23 23 21 18 16 13 12 12 12 11 11 11 10 10 10 11 11 12 12 12 12 12 12 13 13 13 12 12 12 12 12
17 17 16 16 15 15 15 14 14 14 14 14 15 15 16 16 17 16 16 15 15 15 14 14 14 14 15 16 15 15 14 15 17 18 19 19 20 22 23 23 22 20 17 14 13 12 12 11 11 11 10 10 10 10 10 11 11 11 11 11 11 11 12 12 12 11 11 12 12
17 17 16 15 15 15 15 15 15 15 15 15 16 17 18 18 19 19 19 18 18 17 17 16 15 15 15 16 16 16 15 14 16 18 19 19 19 21 22 24 23 22 20 17 15 13 12 12 11 11 11 10 10 10 10 10 10 10 10 9 9 10 10 10 10 10 11 11 12
17 16 16 15 14 14 15 15 15 16 16 16 17 18 18 19 19 20 20 20 20 19 19 18 17 16 16 16 17 16 16 14 15 17 18 18 19 21 22 23 23 22 20 19 17 15 13 13 12 12 11 11 11 10 10 9 9 9 9 8 8 8 9 9 9 10 10 11 11
16 15 15 14 14 14 15 15 15 16 16 17 17 17 18 19 19 20 20 20 20 19 19 18 17 16 16 17 17 17 17 15 16 16 17 18 19 20 21 21 22 22 21 20 18 16 15 14 13 12 12 11 11 11 10 9 9 9 8 8 7 8 8 8 8 9 9 10 10
15 15 14 13 14 15 15 16 16 16 17 17 17 18 18 19 19 19 19 18 18 18 18 17 16 16 16 17 18 18 18 18 18 18 19 19 20 21 22 22 22 22 21 19 17 16 15 13 13 13 12 11 11 11 11 10 9 9 9 9 9 8 8 8 8 8 9 9 9
15 14 13 12 14 15 16 16 17 18 18 18 18 18 19 19 19 19 18 17 17 17 16 14 14 15 16 17 18 18 19 20 20 21 21 21 21 21 22 22 21 20 18 16 15 14 14 12 12 11 11 11 11 10 10 10 10 10 10 10 10 9 9 8 9 9 9 9 8
15 15 14 14 15 16 16 17 18 19 20 20 20 19 19 19 19 18 18 17 17 16 16 15 15 16 16 16 17 18 19 20 21 22 22 22 21 21 21 20 19 17 15 13 15 16 16 13 11 10 10 10 10 10 10 10 10 11 11 11 11 10 9 9 10 10 10 10 9
15 15 16 16 16 17 17 18 19 20 21 21 21 21 20 19 18 18 18 17 17 17 16 16 16 15 15 15 17 18 19 19 19 21 22 22 22 22 21 19 17 14 13 13 16 18 19 17 14 12 11 10 10 10 9 9 11 11 12 12 11 10 10 10 10 10 10 10 10
15 15 16 16 17 18 19 19 20 20 21 21 21 21 21 19 17 17 17 17 17 17 16 16 15 15 15 15 17 18 19 18 19 20 21 22 22 22 21 19 16 13 12 14 17 19 20 20 18 16 14 11 11 10 10 9 11 11 11 11 11 11 11 11 11 11 10 10 11
15 15 16 17 18 19 20 20 20 21 21 21 21 21 20 20 19 18 17 17 17 16 15 15 14 13 12 12 15 17 19 19 19 18 19 20 21 22 21 18 16 13 13 15 18 20 22 21 21 20 17 13 11 10 10 10 10 10 10 9 10 10 11 10 10 10 11 11 11
16 16 16 17 19 20 20 21 21 20 20 20 20 20 20 20 19 19 18 18 17 16 15 13 12 11 11 13 15 17 19 20 19 18 17 19 21 21 20 19 16 15 14 16 19 21 23 22 22 21 19 16 11 9 9 9 9 9 8 8 8 9 9 9 9 10 11 12 12
16 16 16 17 19 20 20 20 20 20 20 19 19 19 20 19 19 20 19 19 18 17 16 14 14 14 15 16 17 17 18 18 18 18 18 20 21 21 20 18 16 15 15 18 21 22 23 23 22 22 20 18 13 10 9 9 9 9 8 8 9 10 10 10 11 11 12 12 13
17 17 17 18 19 20 20 20 20 20 19 19 19 20 20 20 20 20 20 19 18 18 17 17 18 19 19 18 18 18 18 19 18 18 19 20 20 20 19 19 18 16 16 19 22 23 24 23 23 22 21 18 14 11 9 10 9 9 8 8 10 11 11 11 11 12 13 14 14
18 18 18 18 19 19 20 20 20 20 20 20 20 21 21 21 20 20 19 18 18 19 19 19 20 20 20 20 19 19 20 20 20 19 19 18 19 19 19 19 18 17 17 22 24 24 24 23 23 22 21 18 14 12 11 10 10 9 9 10 11 11 11 9 10 12 14 14 14
18 19 19 19 19 19 20 20 20 20 20 20 20 21 21 21 21 20 19 18 18 19 20 20 20 20 20 20 20 20 20 20 20 20 20 19 19 19 20 18 16 13 16 24 25 25 24 24 23 22 20 17 13 12 11 10 9 8 8 9 10 11 11 11 11 12 13 14 13
17 18 19 19 20 20 19 19 19 19 19 19 20 20 21 21 21 21 20 19 18 18 18 19 19 19 19 19 19 20 20 19 19 19 19 18 19 19 18 14 9 11 17 24 24 24 24 24 24 22 20 16 12 11 11 10 9 8 8 9 9 10 10 11 11 12 12 13 11
17 17 18 19 20 20 19 19 19 19 19 19 20 20 21 21 21 21 20 19 18 18 18 18 17 17 17 18 18 19 20 20 19 18 18 17 18 17 13 9 8 14 20 24 25 25 25 26 24 22 19 14 11 10 11 11 10 10 10 10 10 10 10 10 10 11 11 12 12
17 17 17 18 19 20 20 19 19 19 20 20 20 20 21 21 21 20 20 19 19 19 18 18 17 17 17 18 18 19 19 19 18 17 17 17 16 12 10 9 12 17 22 25 25 26 26 26 24 22 18 13 10 9 9 10 9 10 11 11 11 10 10 10 10 10 10 11 12
17 17 17 18 19 20 20 20 20 20 20 20 21 21 21 22 21 20 19 18 18 18 18 17 17 17 18 18 18 19 19 18 17 16 15 15 11 10 11 11 14 17 21 25 26 27 27 26 24 20 16 12 10 9 9 8 8 9 10 11 10 10 10 9 9 10 11 11 12
18 18 18 18 19 20 20 21 21 21 21 21 21 21 21 21 20 20 18 17 17 17 18 17 17 17 18 18 19 20 20 18 16 15 14 11 9 11 12 13 13 16 19 24 26 27 26 25 23 20 16 12 11 10 9 8 8 9 9 9 9 9 9 7 8 9 11 13 14
19 19 19 19 20 20 21 21 21 21 21 21 21 21 21 20 19 18 17 17 16 17 17 17 18 18 18 18 18 19 18 17 15 13 10 8 10 12 13 13 13 14 17 23 26 26 26 24 22 20 16 13 11 10 9 9 9 9 9 9 8 9 9 8 8 9 11 14 17
19 19 20 20 20 21 21 21 21 21 20 20 21 21 21 20 19 18 17 16 16 16 16 17 18 18 18 17 17 17 16 15 12 8 6 9 11 13 14 13 13 14 16 22 25 25 25 24 22 20 17 12 11 10 9 9 10 10 10 9 9 9 9 9 9 9 11 13 15
19 20 20 21 21 21 21 21 22 21 20 20 21 20 19 19 18 17 16 15 15 15 15 15 17 18 18 16 14 13 13 11 7 3 7 10 11 12 13 12 12 13 15 19 23 24 24 23 21 19 17 12 11 9 9 9 10 11 11 10 10 9 9 9 9 9 10 11 11
Wind_Direction
302 302 304 308 309 307 304 301 300 299 299 299 299 300 301 300 299 298 297 296 293 291 289 287 286 288 289 291 291 290 289 287 287 287 289 291 290 290 291 292 296 298 299 299 298 297 296 294 289 283 274 265 261 259 258 257 255 245 225 202 208 220 228 231 232 229 222 207 186
296 298 301 304 303 302 302 303 305 306 306 306 305 305 305 303 300 298 296 295 294 294 294 291 289 289 288 288 288 287 284 280 278 277 279 283 286 287 288 289 292 294 296 295 294 294 294 294 293 289 283 274 266 261 259 256 256 255 251 238 227 226 229 231 226 222 216 210 194
292 294 296 299 300 302 304 305 306 306 306 306 307 306 305 303 300 298 296 295 294 294 294 294 293 292 290 288 286 283 279 275 271 268 266 266 272 278 283 287 290 291 291 290 288 286 286 287 288 288 286 283 274 267 262 258 255 256 256 252 244 229 220 220 215 212 210 205 195
290 292 295 297 299 299 300 301 302 302 303 305 305 304 303 301 300 298 298 297 296 295 294 294 295 295 294 293 289 285 279 274 270 267 264 260 261 265 270 276 282 285 285 284 282 279 277 277 278 279 280 280 276 272 267 261 255 255 257 257 248 218 200 198 194 199 205 204 192
294 296 297 297 298 297 297 297 298 299 301 303 302 301 300 299 299 299 300 301 301 300 298 298 297 297 296 295 292 289 285 279 273 268 262 258 255 254 254 258 267 274 278 278 277 274 271 268 266 267 270 273 273 272 267 261 256 255 256 263 238 170 172 174 176 193 204 203 182
301 302 302 300 299 298 297 297 296 297 298 298 297 297 297 298 299 300 301 302 301 301 301 300 299 297 295 294 293 291 289 285 279 271 261 253 246 244 245 249 254 262 268 272 271 268 263 257 253 254 259 267 270 270 266 261 258 256 254 247 134 125 143 161 153 157 163 164 153
305 306 306 304 303 301 300 298 297 296 295 294 294 294 295 297 298 298 299 301 301 301 301 301 300 299 298 297 296 295 293 291 286 278 269 259 253 249 247 246 250 255 259 262 262 259 252 244 241 242 247 257 272 272 269 264 259 254 248 235 157 124 136 156 142 140 145 150 143
307 306 306 305 304 302 300 298 297 296 295 294 293 293 294 295 296 297 299 301 301 301 301 301 301 302 302 302 301 299 297 295 290 284 276 267 260 254 248 245 247 250 251 250 249 246 242 236 232 231 232 226 266 276 276 272 261 251 238 215 164 138 141 142 139 139 140 143 139
306 306 305 303 302 301 299 298 297 296 295 293 292 292 293 294 295 297 299 301 301 302 302 303 304 304 304 303 302 300 299 297 293 288 283 274 266 261 256 252 249 248 246 240 237 237 236 231 227 223 218 196 232 260 273 276 265 254 238 207 171 160 158 150 148 145 142 141 139
306 305 303 301 300 299 298 297 296 295 294 292 292 292 293 294 296 297 299 301 304 304 305 305 306 306 305 303 302 301 299 298 295 292 288 281 274 267 261 251 244 240 238 232 227 228 229 225 223 221 214 198 217 234 249 260 260 254 244 158 152 166 171 158 154 150 146 141 140
305 303 301 299 298 297 297 296 295 294 293 293 293 293 293 294 296 298 300 303 305 304 305 306 307 306 305 304 303 302 301 300 299 298 296 292 285 277 267 252 240 236 236 232 221 217 218 219 221 222 218 207 214 223 231 233 240 238 222 136 153 163 168 162 159 154 149 143 140
302 300 298 297 296 296 295 295 293 293 293 293 293 294 294 294 296 298 300 302 303 303 304 306 306 306 305 305 304 303 302 301 301 301 301 300 295 288 276 258 244 237 234 231 220 213 213 219 221 221 219 214 209 210 215 219 220 213 193 159 160 163 166 165 165 159 150 144 141
299 298 297 296 296 295 295 294 293 293 294 294 294 294 294 293 294 296 298 300 301 303 304 305 305 304 303 302 302 302 303 303 302 303 303 302 299 293 284 269 251 237 230 225 217 213 214 220 221 220 218 214 208 206 208 211 210 200 184 168 168 168 169 169 168 160 150 146 144
298 297 297 297 297 296 295 295 295 295 295 295 296 295 294 293 293 294 295 297 298 300 302 302 302 300 300 300 300 300 301 302 301 300 299 299 297 295 289 279 263 245 230 220 215 214 216 218 218 217 216 214 209 206 205 206 205 197 185 176 175 174 172 171 169 161 153 150 149
298 297 297 298 298 297 297 297 296 296 296 297 297 297 296 294 293 292 293 293 295 296 298 298 297 296 296 296 296 297 297 297 297 296 296 295 294 293 291 284 272 257 239 223 216 212 213 216 217 216 214 212 209 206 203 203 202 197 189 183 180 177 174 173 171 165 159 155 153
298 298 298 299 299 299 299 299 299 299 299 299 300 299 298 296 294 293 291 291 292 292 292 292 293 293 293 292 292 292 292 292 292 292 292 291 291 290 289 285 275 264 248 231 219 211 208 210 213 214 213 211 208 204 202 201 201 198 193 189 184 180 176 174 173 170 166 161 158
298 299 299 299 300 301 302 302 303 303 303 303 303 302 301 299 297 295 292 290 290 289 289 289 289 289 288 287 287 287 286 286 287 287 288 288 288 287 287 284 278 269 256 238 224 213 207 206 208 209 210 208 205 202 200 199 199 198 195 191 187 182 179 176 174 172 169 166 163
299 299 299 300 301 303 304 306 307 307 307 307 306 305 303 301 299 297 295 292 291 289 288 286 284 283 282 281 281 281 281 282 282 283 284 285 285 285 284 283 279 273 262 245 229 217 209 206 206 205 204 202 200 197 196 196 197 196 194 192 188 184 180 177 174 172 170 168 165
299 299 300 301 303 305 307 309 310 310 310 309 307 305 303 301 300 298 296 294 291 288 286 282 279 277 275 276 277 277 277 278 278 279 279 280 281 282 281 280 278 274 266 252 236 221 211 204 202 200 197 195 193 192 191 192 193 193 192 189 186 182 179 175 173 170 168 166 163
299 300 301 303 305 308 310 311 311 311 310 308 306 304 302 300 299 297 294 292 289 286 283 279 276 273 272 273 274 275 275 275 275 276 276 276 276 277 277 277 277 274 268 258 244 228 214 203 199 195 191 189 188 188 187 188 188 188 186 184 180 178 175 171 168 166 164 162 160
299 300 302 305 308 310 311 312 311 309 307 305 303 301 299 298 295 292 290 287 285 282 279 276 273 272 271 272 273 274 274 273 273 273 272 271 271 272 273 274 273 271 267 259 247 233 216 201 194 189 186 185 185 184 183 182 182 181 179 176 174 172 169 165 161 159 158 157 156
300 302 305 308 310 311 312 311 309 307 304 302 300 298 296 293 291 288 285 283 281 278 276 274 272 271 270 272 273 274 275 274 272 270 268 267 267 267 268 269 268 267 264 258 248 235 219 200 189 182 180 180 181 180 178 175 173 170 167 163 163 161 159 156 154 152 150 150 149
303 306 308 309 310 310 310 309 307 304 302 299 297 295 292 290 288 285 283 280 277 275 273 272 270 269 270 271 273 274 274 274 271 269 266 263 262 263 264 264 264 262 260 255 246 235 220 200 186 178 174 174 175 173 171 167 163 158 154 152 150 149 147 145 143 141 139 138 137
306 308 309 310 309 308 307 306 304 302 299 297 294 292 291 289 287 285 282 279 275 273 272 270 269 269 271 271 272 272 272 271 270 268 266 263 261 260 261 261 260 258 254 249 240 228 215 194 180 173 170 170 169 167 164 162 157 152 149 146 144 143 141 139 136 133 130 128 124
306 306 306 306 305 305 304 303 301 298 296 294 293 291 290 288 287 285 282 279 276 274 273 272 271 271 272 271 270 269 268 268 267 267 267 265 262 260 258 257 255 252 248 242 232 221 208 190 175 167 165 166 164 161 158 156 153 150 148 145 144 142 141 138 135 131 128 125 120
303 303 303 303 303 302 301 300 297 295 294 292 291 290 289 288 286 284 281 279 277 276 275 275 274 273 272 271 269 268 266 264 263 263 263 263 261 259 256 253 250 247 243 236 223 211 198 184 173 165 161 162 159 156 153 152 152 150 148 146 145 144 142 139 136 132 128 123 121
300 301 302 302 302 301 299 297 295 294 292 291 290 290 289 288 286 283 281 280 279 278 278 277 276 274 272 270 268 266 264 261 259 258 258 258 257 255 253 250 246 243 237 229 213 199 187 177 171 166 162 160 157 154 151 149 151 150 149 147 147 146 144 140 137 133 129 124 121
300 301 302 303 302 300 298 297 295 293 292 291 290 290 289 288 286 285 283 282 282 281 281 279 277 275 271 267 265 264 263 261 258 256 254 253 253 251 248 245 242 238 231 218 201 189 181 174 169 165 162 157 154 152 150 148 149 149 148 148 147 146 144 141 137 134 130 126 122
303 304 304 303 302 300 298 297 295 294 293 292 291 290 289 288 288 286 285 285 284 283 282 281 278 275 270 267 266 265 264 262 259 256 254 254 254 251 247 242 239 233 222 207 193 184 178 172 166 162 159 154 149 147 147 147 146 146 146 145 146 146 144 142 138 135 131 127 124
306 305 304 303 301 300 298 297 296 295 294 293 292 291 290 289 289 288 287 287 285 284 282 281 279 275 271 269 268 266 264 261 259 257 255 255 254 252 247 240 235 228 216 203 191 183 175 169 162 158 154 150 146 143 144 146 146 146 145 144 145 145 144 142 139 136 133 129 126
306 306 305 303 301 300 299 297 297 296 295 294 293 293 291 290 289 288 287 287 285 284 282 281 278 275 273 270 268 266 264 263 261 258 256 254 252 250 246 241 235 227 214 198 187 178 170 162 156 151 148 145 142 141 141 144 145 145 144 144 145 145 143 140 140 138 135 132 129
307 306 305 303 301 300 299 298 298 297 296 295 294 293 291 290 289 287 286 286 285 284 282 281 278 276 274 272 270 268 266 265 262 259 255 252 250 249 246 242 236 226 207 188 178 170 162 154 148 144 141 139 136 136 138 138 139 138 138 140 141 142 141 140 138 137 135 132 131
307 305 304 302 301 300 300 299 299 298 296 295 293 292 291 290 288 287 286 285 284 283 282 280 278 277 275 274 272 270 268 266 263 259 255 250 249 248 246 241 234 214 187 173 165 158 150 143 138 134 132 130 127 127 129 128 128 129 131 134 136 136 136 135 134 134 133 131 128
305 305 304 302 302 301 300 299 298 297 295 293 291 290 290 289 289 288 287 286 284 282 280 278 276 275 274 273 272 271 269 266 262 257 253 250 249 246 241 230 208 172 160 157 151 144 137 132 129 126 124 121 117 117 118 118 117 118 121 124 126 127 129 130 129 129 128 126 123
305 305 304 303 302 301 300 299 297 296 294 292 291 290 290 289 288 288 287 286 284 282 279 277 275 274 273 272 272 271 269 267 262 258 254 252 249 242 227 194 157 146 145 145 139 134 129 126 124 123 120 115 111 111 113 114 114 116 118 118 118 119 121 122 122 122 121 120 119
306 305 304 303 302 301 300 299 298 296 294 293 292 291 290 290 288 287 286 285 283 281 280 278 277 276 275 275 274 273 270 266 262 259 256 253 244 224 190 151 140 140 141 139 134 131 128 126 125 123 120 115 110 110 111 112 113 115 116 116 117 118 119 119 118 118 118 118 121
306 305 304 303 302 301 300 299 298 296 294 293 292 291 290 289 288 287 285 285 283 282 281 280 278 277 277 277 277 275 272 268 263 260 257 251 226 189 155 138 139 141 141 138 135 132 130 129 127 125 122 116 113 112 113 113 113 115 116 116 117 118 119 118 119 120 122 124 127
307 306 305 304 303 301 300 298 296 295 293 292 291 290 289 288 287 286 285 284 282 282 281 281 279 278 278 279 279 277 275 270 265 261 255 238 191 157 141 136 141 143 142 140 137 135 133 132 131 128 124 119 119 118 117 117 117 118 118 118 119 121 123 122 123 125 127 131 133
308 307 306 304 302 300 298 296 295 293 292 292 291 290 289 288 286 285 284 283 281 280 280 280 279 279 279 280 280 279 276 273 270 263 247 200 157 141 135 136 142 144 144 142 140 138 137 135 133 130 126 121 122 122 122 121 122 122 121 121 122 126 129 128 127 127 129 133 135
308 307 305 303 300 298 296 294 293 292 291 290 290 289 288 286 284 283 282 281 279 279 278 279 279 280 281 281 281 280 278 276 274 259 210 152 137 133 134 136 142 144 145 144 142 141 139 137 135 131 127 122 124 124 124 124 124 125 125 126 128 130 131 130 127 126 128 131 132
306 305 303 300 298 296 295 294 293 291 290 289 288 287 286 284 282 281 280 279 279 278 278 278 280 282 283 284 282 281 279 276 266 207 140 126 128 131 134 136 140 143 145 146 144 143 141 139 136 134 131 126 127 127 127 127 127 128 130 131 132 130 127 126 122 122 124 126 126